DW4005 Mahon ES current weather conditions

sailwx.info

Last reported at 2017-Aug-18 00:04 UTC.
Time now 2017-Aug-18 01:08 UTC

Location: N 39°56' E 004°08'.
View on Google Maps.

See reports from other nearby stations

  
Tides and Currents Weather Stations Pressure Air Temp Water Temp Dewpoint Dewpoint Depression Visibility Wind Speed Wind Dir Waves Ship Positions
date/time (UTC)wind fromknots sea level pressurealtimeterstation pressurevisibilityair tempwater tempwave heightnotes
2017-Aug-18 00:04
2017-Aug-17 23:49
2017-Aug-17 23:34
2017-Aug-17 23:19
2017-Aug-17 23:04
2017-Aug-17 22:49
2017-Aug-17 22:34
2017-Aug-17 22:19
2017-Aug-17 22:04
2017-Aug-17 21:48
2017-Aug-17 21:33
2017-Aug-17 21:18
2017-Aug-17 21:03
2017-Aug-17 20:48
2017-Aug-17 20:33
2017-Aug-17 20:18
2017-Aug-17 20:03
2017-Aug-17 19:48
2017-Aug-17 19:33
2017-Aug-17 19:18
2017-Aug-17 19:03
2017-Aug-17 18:48
2017-Aug-17 18:32 26.7
2017-Aug-17 18:17 355 26.7
2017-Aug-17 18:03 355 27.2
2017-Aug-17 17:48 351 27.8
2017-Aug-17 17:33 311 28.3
2017-Aug-17 17:17 311 0 gusting 3 28.9
2017-Aug-17 17:02 307 0 gusting 4 29.4
2017-Aug-17 16:48 307 0 gusting 4 29.4
2017-Aug-17 16:33 306 0 gusting 4 29.4
2017-Aug-17 16:17 303 1 gusting 2 30.0
2017-Aug-17 16:02 302 0 gusting 2 30.0
2017-Aug-17 15:47 302 0 gusting 4 30.6
2017-Aug-17 15:32 299 1 gusting 5 30.6
2017-Aug-17 15:17 293 1 gusting 5 30.6
2017-Aug-17 15:02 306 2 gusting 5 30.6
2017-Aug-17 14:47 303 2 gusting 5 31.1
2017-Aug-17 14:32 314 3 gusting 6 31.1
2017-Aug-17 14:17 298 1 gusting 5 31.1
2017-Aug-17 14:02 302 2 gusting 5 31.7
2017-Aug-17 13:47 308 2 gusting 6 31.7
2017-Aug-17 13:32 304 1 gusting 5 31.7
2017-Aug-17 13:17 302 2 gusting 6 31.1
2017-Aug-17 13:02 308 3 gusting 6 31.7
2017-Aug-17 12:47 296 3 gusting 5 31.7
2017-Aug-17 12:32 302 1 gusting 5 31.7
2017-Aug-17 12:17 314 1 gusting 5 31.1
2017-Aug-17 12:03 302 3 gusting 5 31.1
2017-Aug-17 11:47 307 1 gusting 5 31.1
2017-Aug-17 11:32 333 1 gusting 6 31.1
2017-Aug-17 11:17 310 1 gusting 6 31.1
2017-Aug-17 11:02 308 2 gusting 5 31.1
2017-Aug-17 10:48 323 2 gusting 5 31.1
2017-Aug-17 10:32 311 2 gusting 5 30.6
2017-Aug-17 10:17 305 3 gusting 5 31.1
2017-Aug-17 10:02 311 1 gusting 6 30.6
2017-Aug-17 09:47 038 1 gusting 5 30.0
2017-Aug-17 09:32 332 0 gusting 5 30.0
2017-Aug-17 09:17 032 29.4
2017-Aug-17 09:02 012 1 gusting 6 28.9
2017-Aug-17 08:47 360 0 gusting 6 28.9
2017-Aug-17 08:32 014 1 gusting 5 28.9
2017-Aug-17 08:17 009 0 gusting 5 28.3
2017-Aug-17 08:02 027 1 gusting 6 27.8
2017-Aug-17 07:47 040 27.8
2017-Aug-17 07:34 040 2 gusting 5 27.2
2017-Aug-17 07:17 046 1 gusting 4 26.7
2017-Aug-17 07:02 042 0 gusting 3 26.1
2017-Aug-17 06:47 042 25.6
2017-Aug-17 06:32 042 25.0
2017-Aug-17 06:17 042 24.4
2017-Aug-17 06:02 042 23.9
2017-Aug-17 05:47 042 23.3
2017-Aug-17 05:32 042 0 gusting 3 23.3
2017-Aug-17 05:16
2017-Aug-17 05:01
2017-Aug-17 04:47
2017-Aug-17 04:31
2017-Aug-17 04:16
2017-Aug-17 04:01
2017-Aug-17 03:46
2017-Aug-17 03:31
2017-Aug-17 03:16
2017-Aug-17 03:01
2017-Aug-17 02:46
2017-Aug-17 02:31
2017-Aug-17 02:16
2017-Aug-17 02:01
2017-Aug-17 01:46
2017-Aug-17 01:30
2017-Aug-17 01:15
2017-Aug-17 01:00
2017-Aug-17 00:45
2017-Aug-17 00:30
2017-Aug-17 00:15
2017-Aug-17 00:00
2017-Aug-16 23:45
2017-Aug-16 23:31
2017-Aug-16 23:15
2017-Aug-16 23:00
2017-Aug-16 22:52
2017-Aug-16 22:29
2017-Aug-16 22:14
2017-Aug-16 21:59
2017-Aug-16 21:45
2017-Aug-16 21:29
2017-Aug-16 21:13
2017-Aug-16 20:58
2017-Aug-16 20:43
2017-Aug-16 20:28
2017-Aug-16 20:13
2017-Aug-16 19:58
2017-Aug-16 19:43
2017-Aug-16 19:28
2017-Aug-16 19:13
2017-Aug-16 18:58
2017-Aug-16 18:43
2017-Aug-16 18:28 103 3 gusting 6 26.1
2017-Aug-16 18:13 115 3 gusting 6 26.1
2017-Aug-16 17:58 126 5 gusting 7 26.1
2017-Aug-16 17:43 091 1 gusting 6 26.7
2017-Aug-16 17:28 093 4 gusting 8 26.7
2017-Aug-16 17:13 123 5 gusting 7 26.7
2017-Aug-16 16:58 113 4 gusting 7 27.2
2017-Aug-16 16:43 105 4 gusting 8 27.2
2017-Aug-16 16:28 136 5 gusting 8 27.8
2017-Aug-16 16:13 119 4 gusting 7 27.8
2017-Aug-16 15:58 123 4 gusting 9 27.8
2017-Aug-16 15:43 127 3 gusting 7 27.8
2017-Aug-16 15:28 121 3 gusting 8 27.8
2017-Aug-16 15:12 124 3 gusting 9 28.3
2017-Aug-16 14:57 114 3 gusting 7 28.3
2017-Aug-16 14:43 114 4 gusting 7 28.3
2017-Aug-16 14:28 122 3 gusting 7 28.3
2017-Aug-16 14:13 117 5 gusting 8 28.3
2017-Aug-16 13:58 142 2 gusting 8 28.3
2017-Aug-16 13:42 121 3 gusting 8 28.3
2017-Aug-16 13:27 121 6 gusting 10 28.3
2017-Aug-16 13:12 059 4 gusting 10 28.3
2017-Aug-16 12:57 122 5 gusting 10 28.9
2017-Aug-16 12:42 116 5 gusting 8 28.9
2017-Aug-16 12:27 084 3 gusting 8 28.9
2017-Aug-16 12:12 118 3 gusting 8 28.9
2017-Aug-16 11:57 109 4 gusting 7 28.9
2017-Aug-16 11:42 092 4 gusting 7 28.3
2017-Aug-16 11:27 132 4 gusting 7 28.3
2017-Aug-16 11:12 107 5 gusting 8 28.9
2017-Aug-16 10:57 092 3 gusting 8 28.9
2017-Aug-16 10:42 142 5 gusting 9 28.3
2017-Aug-16 10:27 021 5 gusting 10 28.3
2017-Aug-16 10:12 124 5 gusting 10 28.9
2017-Aug-16 09:57 126 4 gusting 8 28.3
2017-Aug-16 09:42 109 5 gusting 9 28.3
2017-Aug-16 09:27 108 6 gusting 9 27.8
2017-Aug-16 09:12 124 5 gusting 10 27.8
2017-Aug-16 08:57 116 5 gusting 8 27.8
2017-Aug-16 08:42 114 5 gusting 9 27.2
2017-Aug-16 08:27 122 5 gusting 8 27.2
2017-Aug-16 08:12 121 4 gusting 8 27.2
2017-Aug-16 07:59 055 5 gusting 7 27.2
2017-Aug-16 07:42 101 3 gusting 7 26.7
2017-Aug-16 07:27 126 4 gusting 6 26.1
2017-Aug-16 07:12 115 3 gusting 7 26.1
2017-Aug-16 06:57 128 4 gusting 7 25.6
2017-Aug-16 06:42 101 1 gusting 5 25.6
2017-Aug-16 06:27 070 25.0
2017-Aug-16 06:12 065 1 gusting 4 25.0
2017-Aug-16 05:57 113 24.4
2017-Aug-16 05:42 113 1 gusting 1
2017-Aug-16 05:27
2017-Aug-16 05:12
2017-Aug-16 04:57
2017-Aug-16 04:41
2017-Aug-16 04:27
2017-Aug-16 04:12
2017-Aug-16 03:56
2017-Aug-16 03:41
2017-Aug-16 03:28
2017-Aug-16 03:16
2017-Aug-16 02:56
2017-Aug-16 02:41
2017-Aug-16 02:26
2017-Aug-16 02:11
2017-Aug-16 01:58